Weather Service Report


440 
ASUS41 KAKQ 282015
RWRAKQ

REGIONAL WEATHER ROUNDUP
NATIONAL WEATHER SERVICE WAKEFIELD VA
400 PM EDT WED SEP 28 2016

Note: "fair" indicates few or no clouds below 12,000 feet with no
significant weather and/or obstructions to visibility. * = Denotes
station may not report precipitation (e.g., rain,snow,etc.),
thunder or fog.

VAZ042-051-052>054-056-282100-
NORTHERN VIRGINIA
  
CITY           SKY/WX    TMP DP  RH WIND       PRES   REMARKS
WASH NATIONAL  CLOUDY    69  67  93 NE8       29.99S                  
DULLES         LGT RAIN  66  64  93 NE9       30.00S FOG              
FORT BELVOIR   CLOUDY    68  66  94 E1        29.98S                  
QUANTICO       CLOUDY    70  66  87 E8        29.98F                  
FREDERICKSBRG* LGT RAIN  69  69 100 NE7       29.95S                  
STAFFORD*      CLOUDY    67  67  97 NE7       30.01S                  
WARRENTON      CLOUDY    68  63  84 NE3       29.97F                  
CULPEPER*      CLOUDY    66  66  99 N3        29.99S                  
MANASSAS*      CLOUDY    68  68 100 VRB5      29.99S                  
LEESBURG*      LGT RAIN  64  64 100 N7        30.01F                  
WINCHESTER     CLOUDY    66  61  82 NE3       30.00F                  
FRONT ROYAL*   CLOUDY    66  63  88 E5        29.98F                  
LURAY*         CLOUDY    70  64  83 NE7       29.98S                  
$$

VAZ048-049-060>072-079>083-282100-
CENTRAL AND SOUTH CENTRAL VIRGINIA
  
CITY           SKY/WX    TMP DP  RH WIND       PRES   REMARKS
RICHMOND       PTSUNNY   75  71  87 SE13      29.91F                  
CHESTERFIELD*  MOCLDY    79  61  53 S10       29.92F                  
PETERSBURG*    PTSUNNY   81  62  53 SE5       29.92F                  
HANOVER        CLOUDY    70  68  93 E8        29.92F THUNDER          
TAPPAHANNOCK*  CLOUDY    70  70 100 NE6       29.96F                  
QUINTON*       CLOUDY    75  73  94 E8        29.92F                  
CHARLOTTSVILLE CLOUDY    68  63  84 NE9       29.97S HAZE             
GORDONSVILLE*  CLOUDY    66  66 100 NE9       29.96S FOG              
ORANGE*          N/A     66  66 100 N6        29.99R FOG              
LOUISA*        LGT RAIN  72  70  94 NW6       29.95R                  
BUMPASS*       CLOUDY    68  68 100 E5        29.94F                  
FARMVILLE*     CLOUDY    75  73  93 N3        29.92S                  
CREWE*         MOCLDY    80  71  75 CALM      29.91F                  
FORT PICKETT*  FAIR      82  68  62 S9        29.91F                  
CHASE CITY*    FAIR      81  68  63 S3        29.91F                  
CLARKSVILLE*   CLOUDY    81  70  69 E3        29.90F                  
SOUTH HILL*    PTSUNNY   81  72  74 S6        29.96F                  
LAWRENCEVILLE* MOCLDY    83  71  65 S5        29.91F                  
EMPORIA*       PTSUNNY   81  72  74 SE5       29.92F                  
$$

VAZ088>098-282100-
SOUTHEAST VIRGINIA
  
CITY           SKY/WX    TMP DP  RH WIND       PRES   REMARKS
NORFOLK        MOSUNNY   79  68  69 SE10G21   29.95F                  
VIRGINIA BEACH CLOUDY    78  69  73 SE12      29.95F                  
NORFOLK NAVAL  CLOUDY    79  68  69 E13       29.95F                  
WEST POINT*    CLOUDY    75  68  77 E13G21    29.95F                  
SALUDA*        CLOUDY    75  70  86 SE8       29.95F                  
NEWPORT NEWS   PTSUNNY   76  68  76 E13G23    29.94F                  
LANGLEY AFB    CLOUDY    76  68  75 SE14      29.95F                  
FORT EUSTIS    MOSUNNY   80  71  73 SE12      29.91F                  
WILLIAMSBURG*  CLOUDY    75  72  88 E8G18     29.94F                  
HR EXEC AP*    MOCLDY    79  70  73 SE12      29.95F                  
FRANKLIN*      MOSUNNY   77  72  84 E6        29.93F                  
US460-WAKEFLD  PTSUNNY   79  68  69 VRB5      29.92F THUNDER          
$$

VAZ020-022-025-037-045-282100-
WEST CENTRAL AND SOUTHWEST VIRGINIA
  
CITY           SKY/WX    TMP DP  RH WIND       PRES   REMARKS
STAUNTON*      CLOUDY    68  62  81 N6        29.98S                  
WAYNESBORO*    MOCLDY    70  63  78 SE6       29.97F                  
HOT SPRINGS VA CLOUDY    65  59  82 SE7       30.01F                  
LYNCHBURG      MOSUNNY   76  67  73 SE8       29.93F                  
DANVILLE       TSTM      70  69  97 N7        29.91F FOG              
SOUTH BOSTON*  CLOUDY    77  72  84 N5        29.90F                  
MARTINSVILLE   CLOUDY    80  65  59 S6        29.92F                  
ROANOKE        PTSUNNY   76  64  66 E10       29.92F THUNDER          
BLACKSBURG     CLOUDY    64  60  89 N7G15     29.97R                  
DUBLIN*        CLOUDY    68  65  90 CALM      29.94F                  
MARION*        SUNNY     76  55  47 W12       29.96F                  
HILLSVILLE*    CLOUDY    73  64  73 S15       29.94F                  
RICHLANDS*     FAIR      75  43  32 SW9G18    29.95F                  
WISE*          SUNNY     73  30  20 S9        29.96F                  
ABINGDON*      SUNNY     79  47  32 W8        29.92F                  
$$

MDZ021>025-VAZ099-100-282100-
SOUTHERN MARYLAND AND THE DELMARVA PENINSULA
  
CITY           SKY/WX    TMP DP  RH WIND       PRES   REMARKS
PATUXENT RIVER TSTM      70  66  87 SE20G28   29.96F FOG              
BAY BRIDGE APT CLOUDY    72  66  83 MISG      29.99F                  
LEONARDTOWN    CLOUDY    68  64  88 E7        29.98F                  
DOVER          CLOUDY    71  71 100 E18       30.01S                  
GEORGETOWN     CLOUDY    71  68  90 E13G22    30.02S                  
EASTON         PTSUNNY   73  66  78 E14       30.03S                  
CAMBRIDGE      CLOUDY    70  64  83 E12       29.99S                  
SALISBURY      CLOUDY    71  69  93 E10       30.00S                  
OCEAN CITY     LGT RAIN  74  70  87 E14G22    29.99F                  
WALLOPS ISLAND CLOUDY    74  70  87 NE15      30.00F                  
ACCOMACK*      CLOUDY    76  68  77 E8        29.98F                  
$$

NCZ012>017-030>032-282100-
NORTH CENTRAL AND EASTERN NORTH CAROLINA
  
CITY           SKY/WX    TMP DP  RH WIND       PRES   REMARKS
ROANOKE RAPIDS FAIR      79  72  78 SE3       29.91F                  
RALEIGH        CLOUDY    82  69  64 S9        29.91F                  
ELIZABETH CITY MOSUNNY   79  70  74 SE12      29.96F                  
AHOSKIE*       CLOUDY    82  72  72 SE8       29.92F                  
EDENTON*       MOSUNNY   83  70  65 E13       29.95F                  
CURRITUCK*     NOT AVBL                                               
KILL DEVIL HLS MOSUNNY   83  74  75 E7        29.97S                  
MANTEO         PTSUNNY   78  71  78 SE10      29.98F                  
CAPE HATTERAS  SUNNY     82  70  66 SE7       29.98F                  
TARBORO*       MOCLDY    83  72  67 SE7G21    29.92F                  
GOLDSBORO      MOSUNNY   86  71  62 S6        29.90F                  
WASHINGTON     MOSUNNY   84  71  64 SE8       29.93F                  
GREENVILLE     MOSUNNY   86  70  58 S10       29.93F                  
NEW BERN       MOSUNNY   86  70  58 S12       29.95F                  
WILMINGTON     SUNNY     84  71  65 S12       29.93F                  
$$

VAZ048-282100-
ELSEWHERE
  
CITY           SKY/WX    TMP DP  RH WIND       PRES   REMARKS
HARRISBURG PA  LGT RAIN  67  63  87 E9        30.05F                  
BALTIMORE      LGT RAIN  67  63  87 NE14      30.00F                  
ANNAPOLIS        N/A    N/A N/A N/A MISG      29.99F                  
ANDREWS AFB    DRIZZLE   68  66  93 NE7       29.98F                  
PHILADELPHIA   CLOUDY    71  63  75 E13       30.07S                  
HENDERSON NC   CLOUDY    80  67  64 S6        29.91F                  
GREENSBORO     TSTM      72  67  84 NW15G30   29.90S                  
ROCKY MOUNT    LGT RAIN  80  72  76 CALM      29.92S                  
$$

VAZ100-282100-
MARINE
  
STATION/POSITION TIME  TEMP    WIND        PRES    WAVE   SWELL
                       AIR SEA DIR/SP/G            HT/PER HT/PER
                 (UTC) (F)     (DEG/KT/KT) (MB)    (FT/S) (FT/S)
BRANDYWINE LGT   1948   70     100/ 21/ 23   N/A
CAPE MAY NJ      1948   71 72   80/ 10/ 16 1016.1S
LEWES DE         1948   71 71  100/ 16/ 22 1016.3F
OCEAN-CITY-INLET 1948   71 73  110/  9/ 15 1016.5F
WACHAPREAGUE VA  1948   75 75   80/  9/ 13 1015.5F
THOMAS POINT MD  2000   71 74   90/ 14/ 16 1016.8F
GOOSES REEF MD   2000   71 74  120/ 16/ 23 1015.3    2/ 3
COVE POINT MD    1948   70     140/ 19/ 24 1015.4F
SOLOMONS ISLAND  1948   71 75  110/ 18/ 22   N/A
BISHOPS HEAD MD  1948   71 71   90/ 14/ 16 1015.2F
PINEY POINT MD   1948          130/ 16/ 19   N/A
POTOMAC MD       2000   72 75  110/ 17/ 19 1013.8    2/ 3
CAMBRIDGE MD     1948   72 72  100/ 13/ 17 1014.5F
LEWISETTA VA     1948   72 73  130/ 17/ 22 1014.1F
RAPPAHANNOCK LGT 1948          100/ 17/ 20 1015.2F
STINGRAY PT      1950   76      70/ 14/ 17 1015.1F
YORK RVR RNG VA  1948   75     130/ 19/ 21 1013.8F
YORKTOWN VA      1948   76 76  130/ 18/ 20 1013.9F
JAMESTOWN VA     2000   75 77   90/ 12/ 16   N/A     1
DOMINION TERM VA 1948   77     130/ 16/ 18 1014.1F
KIPTOPEKE VA     1948      76  130/ 11/ 16   N/A
CHES BAY BRIDGE  1948   76 76   90/ 12/ 16 1014.5F
CAPE HENRY VA    1948   76     120/ 11/ 16   N/A
WILLOUBY STN VA  1948   76     110/ 14/ 16   N/A
CAPE HENRY BUOY  1942      76                N/A     3/ 6   2/11
1ST LANDING BUOY 2000   76 76  150/ 16/ 19 1014.2    3/ 4
CAPE CHARLES BUO 1956      77                N/A     3/ 7   2/11
OFFSHORE WE BUOY 1951      76                N/A     4/ 7   2/11
64NM E OF VA BCH 1950   77 76   60/  2/  4 1015.3R   4/ 8   3/ 8
DUCK PIER NC     1948   77 77  100/ 12/ 13 1014.6F
44056 DUCK FRF   1941      77                N/A     3/ 7   2/11
OREGON INLET NC  1948   78 78   90/  6/ 10 1015.2F
HATTERAS NC      1948   78 77  120/  5/  8 1015.0F
DIAMOND SHLS NC  1950   78 84   40/  6/  8 1015.2F   4/ 7   3/ 7
CAPE LOOKOUT NC  2000   80     130/  7/  7 1014.6F
$$
  

Return to Home page


Western Regional Climate Center, wrcc@dri.edu